Murray, KY

2:30 AM CDT on July 27, 2017 (GMT -0500)
Kyle-Oakley

Weather History for KCEY - October, 2012

Change the Weather History Date:

Sunday, October 28, 2012

  Actual Average (KPAH) Record (KPAH)
Temperature  
Mean Temperature 44 °F -  
Max Temperature 53 °F 67 °F 86 °F (1940)
Min Temperature 35 °F 42 °F 24 °F (1976)
Degree Days  
Heating Degree Days 21    
Moisture  
Dew Point 33 °F    
Average Humidity 66    
Maximum Humidity 87    
Minimum Humidity 38    
Precipitation  
Precipitation 0.00 in - - ()
Sea Level Pressure  
Sea Level Pressure 30.14 in    
Wind  
Wind Speed 11 mph (North)    
Max Wind Speed 21 mph    
Max Gust Speed 25 mph    
Visibility 10 miles    
Events      
Averages and records for this station are not official NWS values.
T = Trace of Precipitation, MM = Missing Value Source: NWS Daily Summary

Daily Weather History Graph

Daily Weather History Graph

Search for Another Location

Airport or City:

Trip Planner

Search our weather history database for the weather conditions in past years. The results will help you decide how hot, cold, wet, or windy it might be!

Date:

Astronomy

Oct. 28, 2012 Rise Set
Actual Time 7:13 AM CDT 6:00 PM CDT
Civil Twilight 6:46 AM CDT 6:26 PM CDT
Nautical Twilight 6:16 AM CDT 6:57 PM CDT
Astronomical Twilight 5:46 AM CDT 7:27 PM CDT
Moon 5:17 PM CDT (10/28) 6:07 AM CDT (10/28)
Length of Visible Light 11h 39m
Length of Day
10h 46m
Waxing Gibbous, 99% of the Moon is Illuminated
Oct 28
Waxing Gibbous
Oct 29
Full
Nov 6
Last Quarter
Nov 13
New
Nov 20
First Quarter

Hourly Weather History & Observations

Time (CDT) Temp. Windchill Dew Point Humidity Pressure Visibility Wind Dir Wind Speed Gust Speed Precip Events Conditions
12:15 AM 41.0 °F 35.2 °F 33.8 °F 76% 30.12 in 10.0 mi North 9.2 mph - N/A   Clear
12:55 AM 41.0 °F 34.7 °F 33.8 °F 76% 30.13 in 10.0 mi North 10.4 mph - N/A   Clear
1:15 AM 41.0 °F 35.8 °F 33.8 °F 76% 30.13 in 10.0 mi North 8.1 mph - N/A   Clear
1:35 AM 39.2 °F 33.0 °F 33.8 °F 81% 30.13 in 10.0 mi North 9.2 mph - N/A   Clear
1:55 AM 39.2 °F 33.0 °F 33.8 °F 81% 30.13 in 10.0 mi North 9.2 mph - N/A   Clear
2:15 AM 39.2 °F 33.0 °F 33.8 °F 81% 30.13 in 10.0 mi North 9.2 mph - N/A   Clear
2:35 AM 39.2 °F 34.2 °F 33.8 °F 81% 30.11 in 10.0 mi North 6.9 mph - N/A   Clear
2:55 AM 39.2 °F 33.6 °F 33.8 °F 81% 30.11 in 10.0 mi North 8.1 mph - N/A   Clear
3:15 AM 39.2 °F 33.0 °F 33.8 °F 81% 30.11 in 10.0 mi NNW 9.2 mph - N/A   Clear
3:35 AM 37.4 °F 31.4 °F 32.0 °F 81% 30.11 in 10.0 mi North 8.1 mph - N/A   Clear
3:55 AM 37.4 °F 30.8 °F 32.0 °F 81% 30.11 in 10.0 mi North 9.2 mph - N/A   Clear
4:15 AM 37.4 °F 30.8 °F 32.0 °F 81% 30.11 in 10.0 mi North 9.2 mph - N/A   Clear
4:35 AM 37.4 °F 30.8 °F 32.0 °F 81% 30.11 in 10.0 mi North 9.2 mph - N/A   Clear
4:55 AM 37.4 °F 31.4 °F 32.0 °F 81% 30.11 in 10.0 mi North 8.1 mph - N/A   Clear
5:15 AM 37.4 °F 30.3 °F 32.0 °F 81% 30.11 in 10.0 mi North 10.4 mph - N/A   Clear
5:35 AM 37.4 °F 31.4 °F 32.0 °F 81% 30.12 in 10.0 mi North 8.1 mph - N/A   Clear
5:55 AM 37.4 °F 31.4 °F 32.0 °F 81% 30.12 in 10.0 mi North 8.1 mph - N/A   Clear
6:15 AM 37.4 °F 32.1 °F 32.0 °F 81% 30.13 in 10.0 mi North 6.9 mph - N/A   Clear
6:35 AM 37.4 °F 31.4 °F 32.0 °F 81% 30.13 in 10.0 mi North 8.1 mph - N/A   Clear
6:55 AM 37.4 °F 31.4 °F 32.0 °F 81% 30.14 in 10.0 mi North 8.1 mph - N/A   Clear
7:15 AM 37.4 °F 31.4 °F 32.0 °F 81% 30.14 in 10.0 mi NNW 8.1 mph - N/A   Clear
7:35 AM 35.6 °F 29.9 °F 32.0 °F 87% 30.14 in 10.0 mi North 6.9 mph - N/A   Clear
7:55 AM 35.6 °F 29.9 °F 32.0 °F 87% 30.14 in 10.0 mi North 6.9 mph - N/A   Clear
8:15 AM 37.4 °F 32.1 °F 33.8 °F 87% 30.15 in 10.0 mi North 6.9 mph - N/A   Clear
8:35 AM 39.2 °F 32.5 °F 33.8 °F 81% 30.15 in 10.0 mi North 10.4 mph - N/A   Clear
8:55 AM 39.2 °F 31.6 °F 35.6 °F 87% 30.14 in 10.0 mi North 12.7 mph - N/A   Clear
9:15 AM 41.0 °F 33.9 °F 35.6 °F 81% 30.15 in 10.0 mi North 12.7 mph - N/A   Clear
9:35 AM 41.0 °F 34.3 °F 35.6 °F 81% 30.15 in 10.0 mi North 11.5 mph 16.1 mph N/A   Clear
9:55 AM 42.8 °F 38.0 °F 35.6 °F 76% 30.15 in 10.0 mi North 8.1 mph - N/A   Clear
10:15 AM 44.6 °F 38.8 °F 35.6 °F 71% 30.15 in 10.0 mi NNW 11.5 mph - N/A   Clear
10:35 AM 46.4 °F 41.1 °F 35.6 °F 66% 30.15 in 10.0 mi North 11.5 mph 17.3 mph N/A   Clear
10:55 AM 46.4 °F 40.4 °F 35.6 °F 66% 30.15 in 10.0 mi North 13.8 mph 17.3 mph N/A   Clear
11:15 AM 48.2 °F - 35.6 °F 62% 30.15 in 10.0 mi NNE 16.1 mph 20.7 mph N/A   Clear
11:35 AM 48.2 °F - 35.6 °F 62% 30.15 in 10.0 mi NNE 16.1 mph 19.6 mph N/A   Clear
12:15 PM 50.0 °F - 33.8 °F 54% 30.14 in 10.0 mi North 17.3 mph - N/A   Partly Cloudy
12:35 PM 50.0 °F - 33.8 °F 54% 30.14 in 10.0 mi North 15.0 mph 24.2 mph N/A   Clear
12:55 PM 51.8 °F - 32.0 °F 47% 30.13 in 10.0 mi North 16.1 mph 21.9 mph N/A   Clear
1:15 PM 51.8 °F - 32.0 °F 47% 30.13 in 10.0 mi North 17.3 mph 24.2 mph N/A   Clear
1:35 PM 53.6 °F - 32.0 °F 44% 30.12 in 10.0 mi North 18.4 mph 25.3 mph N/A   Clear
1:55 PM 53.6 °F - 32.0 °F 44% 30.12 in 10.0 mi NNW 20.7 mph 25.3 mph N/A   Clear
2:15 PM 53.6 °F - 28.4 °F 38% 30.12 in 10.0 mi North 17.3 mph 20.7 mph N/A   Clear
2:35 PM 53.6 °F - 28.4 °F 38% 30.12 in 10.0 mi North 15.0 mph 21.9 mph N/A   Clear
2:55 PM 53.6 °F - 28.4 °F 38% 30.11 in 10.0 mi North 16.1 mph 21.9 mph N/A   Clear
3:15 PM 53.6 °F - 28.4 °F 38% 30.12 in 10.0 mi North 16.1 mph 23.0 mph N/A   Clear
3:35 PM 53.6 °F - 30.2 °F 41% 30.12 in 10.0 mi NNW 17.3 mph 21.9 mph N/A   Clear
3:55 PM 53.6 °F - 30.2 °F 41% 30.11 in 10.0 mi North 16.1 mph - N/A   Clear
4:15 PM 53.6 °F - 32.0 °F 44% 30.12 in 10.0 mi North 13.8 mph - N/A   Clear
4:35 PM 53.6 °F - 32.0 °F 44% 30.12 in 10.0 mi North 15.0 mph 21.9 mph N/A   Clear
4:55 PM 51.8 °F - 32.0 °F 47% 30.12 in 10.0 mi NNW 17.3 mph 20.7 mph N/A   Clear
5:15 PM 50.0 °F - 32.0 °F 50% 30.13 in 10.0 mi North 16.1 mph 23.0 mph N/A   Clear
5:35 PM 50.0 °F - 32.0 °F 50% 30.13 in 10.0 mi North 13.8 mph - N/A   Clear
5:55 PM 48.2 °F - 32.0 °F 54% 30.14 in 10.0 mi North 13.8 mph 20.7 mph N/A   Clear
6:15 PM 48.2 °F - 32.0 °F 54% 30.14 in 10.0 mi North 11.5 mph 20.7 mph N/A   Clear
6:35 PM 46.4 °F 41.5 °F 32.0 °F 57% 30.14 in 10.0 mi North 10.4 mph - N/A   Clear
6:55 PM 46.4 °F 41.5 °F 32.0 °F 57% 30.15 in 10.0 mi North 10.4 mph - N/A   Clear
7:15 PM 46.4 °F 41.9 °F 32.0 °F 57% 30.16 in 10.0 mi North 9.2 mph 17.3 mph N/A   Clear
7:35 PM 44.6 °F 39.2 °F 32.0 °F 61% 30.15 in 10.0 mi North 10.4 mph - N/A   Clear
7:55 PM 44.6 °F 38.8 °F 32.0 °F 61% 30.16 in 10.0 mi North 11.5 mph - N/A   Clear
8:15 PM 44.6 °F 39.2 °F 32.0 °F 61% 30.16 in 10.0 mi North 10.4 mph - N/A   Clear
8:35 PM 44.6 °F 39.7 °F 32.0 °F 61% 30.17 in 10.0 mi North 9.2 mph - N/A   Clear
8:55 PM 44.6 °F 39.2 °F 32.0 °F 61% 30.17 in 10.0 mi North 10.4 mph - N/A   Clear
9:15 PM 44.6 °F 39.7 °F 32.0 °F 61% 30.17 in 10.0 mi North 9.2 mph 16.1 mph N/A   Clear
9:35 PM 42.8 °F 37.5 °F 32.0 °F 66% 30.17 in 10.0 mi North 9.2 mph - N/A   Clear
9:55 PM 41.0 °F 34.7 °F 32.0 °F 70% 30.17 in 10.0 mi North 10.4 mph - N/A   Clear
10:15 PM 41.0 °F 35.2 °F 32.0 °F 70% 30.17 in 10.0 mi North 9.2 mph - N/A   Clear
10:35 PM 41.0 °F 34.7 °F 32.0 °F 70% 30.17 in 10.0 mi North 10.4 mph - N/A   Clear
11:15 PM 41.0 °F 35.8 °F 32.0 °F 70% 30.17 in 10.0 mi NNW 8.1 mph - N/A   Clear
11:55 PM 41.0 °F 34.7 °F 32.0 °F 70% 30.17 in 10.0 mi NNW 10.4 mph - N/A   Clear